TimeEST,TemperatureF,Dew PointF,Humidity,Sea Level PressureIn,VisibilityMPH,Wind Direction,Wind SpeedMPH,Gust SpeedMPH,PrecipitationIn,Events,Conditions,WindDirDegrees,DateUTC
12:54 AM,41.0,28.4,61,30.10,10.0,SW,8.1,-,N/A,,Clear,230,2013-01-20 05:54:00
1:54 AM,44.1,30.9,60,30.08,10.0,SW,8.1,-,N/A,,Clear,230,2013-01-20 06:54:00
2:54 AM,46.4,32.0,57,30.06,10.0,SW,12.7,-,N/A,,Clear,230,2013-01-20 07:54:00
3:54 AM,46.0,32.0,58,30.04,10.0,SW,11.5,-,N/A,,Clear,230,2013-01-20 08:54:00
4:54 AM,46.0,32.0,58,30.02,10.0,SW,9.2,-,N/A,,Clear,230,2013-01-20 09:54:00
5:54 AM,46.0,32.0,58,30.01,10.0,SW,10.4,-,N/A,,Clear,230,2013-01-20 10:54:00
6:54 AM,44.6,32.0,61,30.00,10.0,SW,13.8,-,N/A,,Clear,230,2013-01-20 11:54:00
7:54 AM,46.0,30.9,56,30.00,10.0,WSW,12.7,-,N/A,,Clear,240,2013-01-20 12:54:00
8:54 AM,48.0,32.0,54,29.99,10.0,SW,12.7,-,N/A,,Clear,230,2013-01-20 13:54:00
9:54 AM,52.0,32.0,47,30.01,10.0,WSW,13.8,19.6,N/A,,Clear,240,2013-01-20 14:54:00
10:54 AM,55.9,32.0,40,29.99,10.0,WSW,18.4,25.3,N/A,,Clear,250,2013-01-20 15:54:00
11:54 AM,57.9,33.1,39,29.95,10.0,WSW,18.4,27.6,N/A,,Clear,250,2013-01-20 16:54:00
12:54 PM,60.1,33.1,36,29.91,10.0,WSW,17.3,24.2,N/A,,Clear,240,2013-01-20 17:54:00
1:54 PM,62.1,32.0,32,29.90,10.0,WSW,18.4,26.5,N/A,,Clear,250,2013-01-20 18:54:00
2:54 PM,62.1,30.9,31,29.90,10.0,West,15.0,25.3,N/A,,Clear,260,2013-01-20 19:54:00
3:54 PM,62.1,30.0,30,29.92,10.0,WSW,15.0,24.2,N/A,,Clear,250,2013-01-20 20:54:00
4:54 PM,59.0,30.9,35,29.93,10.0,West,12.7,-,N/A,,Clear,260,2013-01-20 21:54:00
5:54 PM,55.0,32.0,42,29.96,10.0,WSW,6.9,-,N/A,,Clear,240,2013-01-20 22:54:00
6:54 PM,53.1,30.9,43,29.99,10.0,WSW,5.8,-,N/A,,Clear,250,2013-01-20 23:54:00
7:54 PM,48.0,30.9,52,30.02,10.0,SW,5.8,-,N/A,,Clear,230,2013-01-21 00:54:00
8:54 PM,48.0,30.0,50,30.03,10.0,West,3.5,-,N/A,,Clear,270,2013-01-21 01:54:00
9:54 PM,46.9,30.0,52,30.05,10.0,West,3.5,-,N/A,,Clear,270,2013-01-21 02:54:00
10:54 PM,45.0,30.9,58,30.06,10.0,Calm,Calm,-,N/A,,Clear,0,2013-01-21 03:54:00
11:54 PM,43.0,21.0,42,30.06,10.0,North,3.5,-,N/A,,Clear,10,2013-01-21 04:54:00